Amos 2

operational
NORAD ID: 28132 Int'l Des: 2003-059 Owner: IAIS Country: IL
HEOCIRCULAR

Über Amos 2

Beschreibung wird geladen...

Live-Position

3D-Globus wird geladen...

Nächste Überflüge

Höhenverlauf

Altitude vs Time

uPlot chart will show altitude changes over time

Zweizeiliger Elementsatz

1 28132U 03059A 26073.24039010 -.00000312 00000-0 00000-0 0 9997
2 28132 8.2874 64.0335 0001949 220.4994 117.3993 0.99400796 81096
Epoch: 14. März 2026 • Age: 12 hours

Aktueller Status

Höhe 36028.3 km
Geschwindigkeit 3.07 km/s
Subsatellitenpunkt 3.43°N, 142.19°E
Startdatum 27. Dez. 2003
Alter 22.2 years
Typ other

Technische Details

Klassifizierung Payload
Masse 1350.00 kg
Trockenmasse 646.00 kg
Gesamtmasse 1350.00 kg
Länge 2.70 m
Durchmesser 2.10 m
Spannweite 11.00 m
Form Box + 2 Pan
Hersteller IAI
Bus-Typ Amos
Phasenstatus In Orbit
Besitzer/Staat IAIS/IL

Große Konstellationen

Loading constellations...